Location: Unspecified
(0.0000°N, 0.0000°E)
Time: 03:41:12
(UTC+01:00)

Ariane H10 - Pass Details

Date: 30 November 2017
Orbit: 390 x 35079 km, 4.3° (Epoch: 13 December)

Event Time Altitude Azimuth Distance (km) Brightness Sun altitude
Rises 16:31:43 0° 89° (E) 34,411 11.4 31.5°
Reaches altitude 10° 18:04:41 10° 88° (E) 39,088 11.6 10.2°
Maximum altitude 21:39:44 30° 85° (E) 29,211 10.9 -39.0°
Drops below altitude 10° 23:09:52 10° 85° (E) 16,426 9.9 -57.5°
Sets 23:21:35 0° 85° (E) 14,670 9.8 -59.5°
